User: anonymous   Login
Location: *
(17.3280°S, 114.7300°W)
Time: 01:55:12
(UTC+00:00)
Language:

H-2A R/B - Orbit

View from above orbital plane
View from above orbital plane
View from above satellite
View from above satellite

Ground track
Ground track

The orbit data is extracted from the following two-line orbital elements,

1 36105U 09066B   20302.20701180 0.00000500  00000-0  26380-4 0    03
2 36105  97.2866 297.6512 0031346  25.5566 334.4432 15.15160252    04
Epoch (UTC): 28 October 2020 04:58:05
Eccentricity: 0.0031346
inclination: 97.2866°
perigee height: 499 km
apogee height: 542 km
right ascension of ascending node: 297.6512°
argument of perigee: 25.5566°
revolutions per day: 15.15160252
mean anomaly at epoch: 334.4432°
orbit number at epoch: 0

The dashed part of the orbit path shows where the satellite is in the earth's shadow,  

DLR